Location: Unspecified
(0.0000°N, 0.0000°E)
Time: 13:09:05
(UTC+00:00)

ORBCOMM FM 119 - Visible Passes

Search period start: 20 July 2025 00:00
Search period end: 30 July 2025 00:00
Orbit: 698 x 700 km, 47.0° (Epoch: 19 July)

Date Brightness Start Highest point End Pass type
(mag) Time Alt. Az. Time Alt. Az. Time Alt. Az.
20 Jul ? 05:14:16 10° SSE 05:15:53 11° SE 05:17:29 10° ESE visible
20 Jul ? 19:16:22 10° WNW 19:20:45 31° SW 19:24:37 13° S visible
22 Jul ? 04:54:45 10° S 04:58:33 21° SE 05:02:20 10° E visible
22 Jul ? 19:00:11 10° W 19:03:23 17° SW 19:06:35 10° S visible
23 Jul ? 05:36:30 10° SW 05:41:31 85° NW 05:46:31 10° NE visible
24 Jul ? 04:38:23 21° S 04:41:09 39° SE 04:45:49 10° ENE visible
25 Jul ? 03:41:20 17° ESE 03:41:20 17° ESE 03:43:57 10° E visible
25 Jul ? 05:20:07 14° WSW 05:24:06 44° NW 05:28:50 10° NNE visible
26 Jul ? 04:23:03 64° S 04:23:44 76° SE 04:28:43 10° NE visible
27 Jul ? 03:25:57 19° E 03:25:57 19° E 03:27:45 10° ENE visible
27 Jul ? 05:04:43 19° W 05:06:41 24° NW 05:10:40 10° N visible
28 Jul ? 04:07:35 43° N 04:07:35 43° N 04:11:11 10° NNE visible
29 Jul ? 03:10:22 13° NE 03:10:22 13° NE 03:10:51 10° NE visible
29 Jul ? 04:49:09 13° NW 04:49:19 13° NW 04:51:31 10° NNW visible
